Regional Weather Roundup
Issued by NWS

Home | Current Version | Previous Version | Graphics & Text | Print | Product List | Glossary On
Versions: 1 2 3 4 5 6 7 8 9 10 11 12 13 14 15 16 17 18 19 20 21 22 23 24 25 26 27
000
ASUS45 KPSR 262310
RWRAZ

ARIZONA HOURLY REGIONAL WEATHER ROUNDUP
NATIONAL WEATHER SERVICE PHOENIX AZ
400 PM MST THU MAY 26 2016

NOTE: FAIR INDICATES FEW OR NO CLOUDS BELOW 12,000 FEET WITH NO
SIGNIFICANT WEATHER AND/OR OBSTRUCTIONS TO VISIBILITY.

AZZ001>003-036-270000-
NORTHWEST ARIZONA

CITY           SKY/WX    TMP DP  RH WIND       PRES   REMARKS
BULLHEAD CITY  MOSUNNY   90  30  12 SW6       29.83F
KINGMAN        MOSUNNY   77  25  14 W12G22    29.93F
$$

AZZ004>008-015-016-018-270000-
NORTH CENTRAL ARIZONA

CITY           SKY/WX    TMP DP  RH WIND       PRES   REMARKS
GRAND CANYON   CLOUDY    61  28  28 NW13G23   30.05S
WILLIAMS       PTSUNNY   61  19  20 W16G24    30.11R
PRESCOTT       MOSUNNY   67  26  21 MISG      29.98F
FLAGSTAFF      CLOUDY    55  26  32 SE3       30.04S
PAYSON         MOSUNNY   68  23  18 SW9G16    30.00F
PAGE           PTSUNNY   69  32  25 NW10      29.93F
$$

AZZ009>014-017-270000-
NORTHEAST ARIZONA

CITY           SKY/WX    TMP DP  RH WIND       PRES   REMARKS
WINSLOW        MOSUNNY   72  25  17 W22G32    29.94S
SAINT JOHNS    MOSUNNY   66  14  13 NW12G24   29.94F
WINDOW ROCK    MOSUNNY   62  22  21 W16G24    29.97F
SHOW LOW       MOSUNNY   59  16  18 W15       30.01F
$$

AZZ023-270000-
GREATER PHOENIX AREA

CITY           SKY/WX    TMP DP  RH WIND       PRES   REMARKS
PHOENIX        MOSUNNY   84  31  14 W12G18    29.83F
BUCKEYE        SUNNY     84  27  12 NW9       29.85F
GLENDALE       MOSUNNY   86  32  14 S12G17    29.85F
LUKE AFB       SUNNY     84  32  15 SW7       29.82F
DEER VALLEY    SUNNY     81  30  15 VRB5      29.84F
SCOTTSDALE     SUNNY     82  32  16 W9        29.86F
MESA-GATEWAY   SUNNY     81  28  15 NW14      29.87F
CHANDLER       SUNNY     82  27  13 SW7       29.85F
$$

AZZ027-028-270000-
SOUTHWEST MARICOPA COUNTY AND PINAL COUNTY

CITY           SKY/WX    TMP DP  RH WIND       PRES   REMARKS
CASA GRANDE    SUNNY     81  30  16 W10       29.87F
GILA BEND      SUNNY     85  26  11 NW9       29.84F
$$

AZZ503-504-507>509-270000-
SOUTHEAST ARIZONA

CITY           SKY/WX    TMP DP  RH WIND       PRES   REMARKS
TUCSON         SUNNY     81  23  11 NW16      29.91F
DAVIS-MONTHAN  SUNNY     79  21  11 W7G18     29.89F
RYAN FIELD     SUNNY     79  27  14 NW7G20    29.90F
NOGALES        SUNNY     78  19  11 W10       29.94F
SIERRA VISTA   SUNNY     75  11   8 W15G23    29.97F
DOUGLAS        SUNNY     80  14   8 SW16G29   29.91F
SAFFORD        SUNNY     81  20  10 NW21G29   29.84F
$$

AZZ020-021-025-026-031-270000-
SOUTHWEST ARIZONA

CITY           SKY/WX    TMP DP  RH WIND       PRES   REMARKS
YUMA           MOSUNNY   86  37  17 VRB5      29.84F
$$

CAZ031-033-041-043-047-048-061-270000-
SOUTHERN CALIFORNIA

CITY           SKY/WX    TMP DP  RH WIND       PRES   REMARKS
DOWNTOWN L.A.  SUNNY     69  54  58 W8        29.99F
L.A. AIRPORT   MOSUNNY   65  54  67 W18       30.00F
SAN DIEGO      PTSUNNY   68  53  58 W10       30.02F
BURBANK        SUNNY     71  52  50 S8        29.97F
ONTARIO        MOSUNNY   76  50  40 W12G20    29.96F
RIVERSIDE      MOSUNNY   76  50  40 W9G16     29.96F
PALM SPRINGS   MOSUNNY   88  41  19 W21G30    29.85
EL CENTRO NAS  MOSUNNY   88  37  16 VRB7      29.83F
IMPERIAL       SUNNY     90  36  14 CALM      29.82F
BLYTHE         SUNNY     89  37  16 E7        29.81F
NEEDLES        MOSUNNY   91  29  11 E9G18     29.81F
$$

NVZ020-UTZ003-270000-
SOUTHERN NEVADA-UTAH

CITY           SKY/WX    TMP DP  RH WIND       PRES   REMARKS
LAS VEGAS      MOSUNNY   83  31  15 W13       29.83F
SALT LAKE CITY PTSUNNY   71  36  27 NW10      29.93F
$$

NMZ009-TXZ055-270000-
NEW MEXICO-WEST TEXAS

CITY           SKY/WX    TMP DP  RH WIND       PRES   REMARKS
ALBUQUERQUE    PTSUNNY   71   5   7 W25G35    29.85S
EL PASO        MOSUNNY   85  11   6 W22G36    29.80F
$$


........................KEY........................
SKY/WX - SKY CONDITION/WEATHER
TMP    - TEMPERATURE IN FAHRENHEIT
DP     - DEW POINT IN FAHRENHEIT
RH     - RELATIVE HUMIDITY IN PERCENT
WIND   - DIRECTION AND SPEED IN MILES PER HOUR (MPH)
VRB    - VARIABLE WIND DIRECTION
PRES   - MEAN SEA LEVEL PRESSURE IN INCHES OF MERCURY
         F - FALLING PRESSURE   R - RISING PRESSURE
         S - STEADY PRESSURE
VSB    - VISIBILITY IN MILES
HX     - HEAT INDEX IN FAHRENHEIT
WCI    - WIND CHILL INDEX IN FAHRENHEIT
TC     - TEMPERATURE IN CELSIUS WHICH IS ALSO KNOWN AS
         TEMPERATURE IN CENTIGRADE
AFB    - AIR FORCE BASE
         LUKE AFB IS LUKE AIR FORCE BASE
         DAVIS-MONTHAN IS DAVIS-MONTHAN AIR FORCE BASE
NAS    - NAVAL AIR STATION
         EL CENTRO NAS IS EL CENTRO NAVAL AIR STATION
N/A    - NOT AVAILABLE





USA.gov is the U.S. government's official web portal to all federal, state and local government web resources and services.